[[{"header":{"parameterUnit":"m.s-1","parameterCategory":2,"la1":30.2991,"la2":30.254,"lo1":-89.0895,"lo2":-89.0444,"dy":0.0017,"dx":0.0017,"nx":28,"ny":28,"refTime":"2025-11-12T09:00:00:Z","depth":"0","parameterNumber":2,"parameterNumberName":"U-component_of_CURRENTS"},"data":[0,0,0,0,0,0,0,0,0,0,0,0,0,0,0,0,0,0,0,0,0,0,0,0,0,0,0,0,0,0,0,0,0,0,0,0,0,0,0,0,0,0,0,0,0,0,0,0,0,0,0,0,0,0,0,0,0,0,0.1846,0.1846,0,0.1866,0.1866,0.1866,0.1855,0.1854,0.1854,0.1853,0.189,0.1891,0.1893,0,0,0,0,0,0,0,0,0,0,0,0,0,0.1814,0.1814,0.1846,0.1846,0.1847,0.1866,0.1866,0.1866,0.1855,0.1854,0.1854,0.1853,0.189,0.1891,0.1893,0,0,0,0,0,0,0,0,0,0,0,0,0,0.183,0.1814,0.1846,0.1844,0.1844,0.1866,0.1866,0.1866,0.1855,0.1854,0.1854,0.1853,0.1889,0.1891,0.1893,0.1922,0,0,0.19,0.1901,0,0,0,0,0,0,0,0,0.1829,0.1831,0.1844,0.1844,0.1844,0.1857,0.1868,0.1886,0.1855,0.185,0.1853,0.1852,0.1881,0.1884,0.1889,0.1924,0.1926,0.19,0.1901,0.1902,0.1903,0,0,0,0,0,0,0,0.1827,0.183,0.1854,0.1844,0.1844,0.1847,0.1848,0.1871,0.187,0.1851,0.185,0.1853,0.1881,0.1887,0.189,0.1926,0.19,0.1902,0.1903,0.1904,0.203,0.2032,0,0,0,0,0,0,0.1826,0.1829,0.1853,0.1854,0.1835,0.1848,0.1849,0.1854,0.187,0.1871,0.1854,0.1852,0.1883,0.1887,0.1891,0.1956,0.1902,0.1904,0.1906,0.2028,0.2031,0.2033,0,0,0,0,0,0,0.1825,0.1828,0.1852,0.1842,0.1845,0.1849,0.1854,0.1854,0.1862,0.1872,0.1873,0.1862,0.1883,0.1888,0.193,0.1956,0.1905,0.1907,0.2026,0.2029,0.2032,0.2067,0,0,0,0,0,0,0.1824,0.1828,0.1834,0.1842,0.1846,0.1873,0.1855,0.1855,0.1865,0.1864,0.1879,0.1881,0.1883,0.1926,0.1932,0.1958,0.1909,0.2023,0.2027,0.2031,0.2063,0.2071,0.2077,0,0,0,0,0,0.1823,0.1835,0.1835,0.1838,0.1854,0.1874,0.1877,0.1876,0.1866,0.1879,0.1895,0.1881,0.1954,0.193,0.1936,0.1963,0.2021,0.2026,0.2031,0.206,0.2069,0.2077,0,0,0,0,0,0,0.1825,0.1836,0.1835,0.185,0.1864,0.1872,0.1883,0.1882,0.1904,0.1903,0.1907,0.1912,0.1962,0.1963,0.1936,0.2014,0.1986,0.1992,0.2006,0.2015,0.2022,0.2018,0.1911,0,0,0,0,0,0.1829,0.184,0.1852,0.1865,0.1873,0.1879,0.1888,0.189,0.1907,0.1914,0.1925,0.1948,0.1986,0.1999,0.2029,0.2068,0.2087,0.2091,0.2098,0.2104,0.2108,0.2167,0.2179,0.2048,0.2048,0.2048,0,0,0.183,0.184,0.1844,0.1866,0.1875,0.1893,0.1882,0.1901,0.1919,0.1918,0.1948,0.1976,0.2006,0.2054,0.2075,0.2055,0.2156,0.211,0.2114,0.2115,0.2173,0.2185,0.2196,0.2051,0.205,0.205,0,0,0.1838,0.185,0.186,0.1877,0.1897,0.1908,0.1915,0.1931,0.1942,0.1979,0.1992,0.2039,0.2075,0.211,0.2131,0.2198,0.2197,0.2204,0.2228,0.2285,0.2296,0.2306,0.2359,0.2373,0.2199,0.2199,0.2199,0,0.1836,0.1852,0.1867,0.1885,0.1899,0.1915,0.1931,0.1953,0.1981,0.2004,0.1993,0.2085,0.2105,0.2182,0.2203,0.2213,0.224,0.2188,0.2293,0.2303,0.2312,0.2364,0.2379,0.2202,0.2201,0.2201,0.2201,0,0.185,0.1866,0.1876,0.1902,0.1925,0.1944,0.1975,0.2004,0.2018,0.204,0.2114,0.2153,0.2206,0.2225,0.2231,0.2314,0.2312,0.2299,0.2265,0.2327,0.2378,0.2393,0.2205,0.2204,0.2203,0.2203,0,0,0.1826,0.1874,0.1875,0.1889,0.1934,0.1951,0.2001,0.2048,0.2083,0.2123,0.2176,0.225,0.227,0.2297,0.2322,0.2366,0.2458,0.2355,0.2357,0.2397,0.2587,0.2636,0.2657,0.2459,0.2461,0.2463,0.26,0,0.1826,0.1855,0.1886,0.1917,0.1932,0.1978,0.2025,0.2077,0.2118,0.2176,0.2238,0.2298,0.2298,0.233,0.2381,0.2444,0.2498,0.2423,0.253,0.2533,0.2561,0.2676,0.2807,0.2944,0.2614,0.2617,0.2618,0,0.1818,0.1842,0.1868,0.1925,0.1938,0.1966,0.2043,0.2087,0.2182,0.2219,0.2293,0.2337,0.2435,0.2411,0.2554,0.2505,0.2551,0.2589,0.2595,0.2637,0.2612,0.2829,0.2983,0.2877,0.2641,0.2639,0.2638,0,0.1778,0.1825,0.1845,0.1862,0.1934,0.1963,0.2006,0.2096,0.2146,0.2246,0.2296,0.2405,0.2471,0.2549,0.264,0.26,0.2788,0.2742,0.2833,0.2836,0.2969,0.298,0.3027,0.2842,0.2842,0.2841,0.2841,0,0.1758,0.1771,0.1825,0.1835,0.187,0.1935,0.1989,0.2051,0.2155,0.2228,0.2311,0.24,0.2507,0.2623,0.2679,0.283,0.283,0.2874,0.2892,0.2986,0.2997,0.2924,0.2814,0.2846,0.2845,0.2844,0.2843,0,0.1706,0.1744,0.1762,0.1828,0.1848,0.1869,0.1963,0.2013,0.2116,0.2217,0.2255,0.242,0.2591,0.2705,0.2856,0.2898,0.2961,0.3056,0.3161,0.3189,0.3153,0.3041,0.2979,0.2863,0.3187,0.3189,0.3191,0,0.1676,0.1682,0.1731,0.1743,0.1767,0.1814,0.1859,0.1972,0.2039,0.2236,0.2294,0.249,0.2649,0.2911,0.3066,0.3228,0.3055,0.3384,0.333,0.3204,0.3092,0.2879,0.2767,0.3526,0.3531,0.3535,0.3538,0,0.1616,0.1636,0.1657,0.1678,0.171,0.1758,0.1835,0.1894,0.205,0.2167,0.2365,0.2512,0.2825,0.3083,0.3298,0.3414,0.3257,0.346,0.3328,0.3372,0.315,0.3032,0.3352,0.3571,0.3567,0.3565,0.3563,0.3562,0.1562,0.1561,0.159,0.161,0.1644,0.1709,0.1753,0.1882,0.2015,0.2224,0.2371,0.2626,0.3014,0.3375,0.3493,0.371,0.344,0.3667,0.3549,0.3347,0.3212,0.3592,0.3815,0.3813,0.3812,0.381,0.3809,0,0.1493,0.1508,0.1523,0.1557,0.1577,0.1625,0.174,0.1811,0.1973,0.2222,0.2414,0.2857,0.3202,0.3522,0.387,0.3819,0.3665,0.3691,0.3445,0.3327,0.3736,0.373,0.3949,0.3949,0.3949,0.3949,0.3949,0.3949,0.1454,0.145,0.1469,0.1482,0.1509,0.1556,0.162,0.176,0.1945,0.2267,0.2545,0.2778,0.3212,0.3606,0.3816,0.3802,0.3431,0.3376,0.3087,0.3431,0.3419,0.3406,0.3377,0.3518,0.3517,0.2705,0.2698,0.2694]},{"header":{"parameterUnit":"m.s-1","parameterCategory":2,"la1":30.2991,"la2":30.254,"lo1":-89.0895,"lo2":-89.0444,"dy":0.0017,"dx":0.0017,"nx":28,"ny":28,"refTime":"2025-11-12T09:00:00:Z","depth":"0","parameterNumber":3,"parameterNumberName":"V-component_of_CURRENTS"},"data":[0,0,0,0,0,0,0,0,0,0,0,0,0,0,0,0,0,0,0,0,0,0,0,0,0,0,0,0,0,0,0,0,0,0,0,0,0,0,0,0,0,0,0,0,0,0,0,0,0,0,0,0,0,0,0,0,0,0,-0.0212,-0.0212,0,-0.019,-0.019,-0.019,-0.0205,-0.0206,-0.0206,-0.0207,-0.0258,-0.0258,-0.0259,0,0,0,0,0,0,0,0,0,0,0,0,0,-0.0267,-0.0266,-0.0213,-0.0212,-0.0212,-0.019,-0.019,-0.019,-0.0205,-0.0206,-0.0207,-0.0207,-0.0257,-0.0258,-0.0259,0,0,0,0,0,0,0,0,0,0,0,0,0,-0.0244,-0.0266,-0.0213,-0.0217,-0.0217,-0.019,-0.019,-0.019,-0.0205,-0.0206,-0.0207,-0.0208,-0.0257,-0.0258,-0.0259,-0.0244,0,0,-0.0262,-0.0263,0,0,0,0,0,0,0,0,-0.0245,-0.0242,-0.0217,-0.0217,-0.0217,-0.0202,-0.0228,-0.0211,-0.0204,-0.0209,-0.0207,-0.0208,-0.0245,-0.0247,-0.0239,-0.0246,-0.0248,-0.0262,-0.0263,-0.0263,-0.0264,0,0,0,0,0,0,0,-0.0247,-0.0243,-0.0203,-0.0216,-0.0217,-0.022,-0.0218,-0.0225,-0.0222,-0.0209,-0.021,-0.0208,-0.0246,-0.0238,-0.0241,-0.0249,-0.0262,-0.0263,-0.0264,-0.0264,-0.0287,-0.0287,0,0,0,0,0,0,-0.0249,-0.0244,-0.0204,-0.0203,-0.0235,-0.0218,-0.0216,-0.0205,-0.0221,-0.0224,-0.0207,-0.0208,-0.0236,-0.0239,-0.0243,-0.0244,-0.0263,-0.0264,-0.0265,-0.0287,-0.0287,-0.0287,0,0,0,0,0,0,-0.025,-0.0245,-0.0205,-0.0224,-0.0219,-0.0216,-0.0204,-0.0204,-0.0202,-0.0219,-0.0223,-0.0206,-0.0237,-0.0241,-0.0249,-0.0246,-0.0265,-0.0266,-0.0287,-0.0287,-0.0287,-0.0235,0,0,0,0,0,0,-0.0251,-0.0245,-0.0237,-0.0224,-0.0218,-0.0187,-0.0203,-0.0203,-0.0199,-0.0201,-0.0219,-0.0224,-0.0238,-0.0247,-0.025,-0.0247,-0.0266,-0.0287,-0.0287,-0.0287,-0.0237,-0.0233,-0.0231,0,0,0,0,0,-0.0253,-0.0238,-0.0236,-0.0232,-0.0207,-0.0186,-0.0183,-0.0185,-0.0198,-0.0189,-0.0205,-0.0224,-0.025,-0.0247,-0.025,-0.0249,-0.0287,-0.0287,-0.0287,-0.0238,-0.0234,-0.0231,0,0,0,0,0,0,-0.0261,-0.0237,-0.0236,-0.0215,-0.0201,-0.0189,-0.0181,-0.0184,-0.0186,-0.0194,-0.0215,-0.022,-0.0227,-0.0245,-0.0242,-0.0257,-0.0275,-0.0275,-0.0237,-0.0233,-0.023,-0.0231,-0.0267,0,0,0,0,0,-0.0257,-0.0236,-0.0219,-0.0203,-0.0195,-0.0188,-0.0181,-0.0181,-0.0181,-0.0183,-0.0195,-0.0214,-0.0227,-0.0236,-0.0247,-0.025,-0.0294,-0.0255,-0.0252,-0.0249,-0.0253,-0.0316,-0.0319,-0.0287,-0.0287,-0.0287,0,0,-0.0256,-0.024,-0.023,-0.0203,-0.0193,-0.0173,-0.0186,-0.0172,-0.0162,-0.0189,-0.0183,-0.0199,-0.0224,-0.0226,-0.0233,-0.0243,-0.0281,-0.0249,-0.0246,-0.0252,-0.0316,-0.0319,-0.0322,-0.0286,-0.0286,-0.0287,0,0,-0.0242,-0.0229,-0.0207,-0.019,-0.0171,-0.0164,-0.016,-0.0146,-0.0149,-0.0139,-0.0162,-0.0178,-0.0187,-0.0207,-0.0219,-0.0207,-0.0259,-0.0213,-0.0198,-0.0259,-0.0262,-0.0266,-0.0323,-0.0332,-0.0215,-0.0215,-0.0214,0,-0.0248,-0.0211,-0.0199,-0.0174,-0.0157,-0.0159,-0.0134,-0.0131,-0.0124,-0.0127,-0.0135,-0.0163,-0.018,-0.0199,-0.0192,-0.02,-0.0244,-0.0207,-0.0255,-0.0259,-0.0264,-0.0322,-0.0333,-0.0212,-0.0212,-0.0213,-0.0213,0,-0.0215,-0.0186,-0.0172,-0.0137,-0.0119,-0.0098,-0.0089,-0.0082,-0.0087,-0.0089,-0.0104,-0.0127,-0.015,-0.0156,-0.0167,-0.0203,-0.0227,-0.024,-0.0263,-0.0264,-0.0325,-0.0337,-0.0209,-0.0209,-0.021,-0.0211,0,0,-0.0232,-0.0162,-0.0158,-0.0127,-0.0097,-0.0076,-0.0063,-0.005,-0.0048,-0.0057,-0.0063,-0.0086,-0.0109,-0.0126,-0.015,-0.0198,-0.0259,-0.0228,-0.0232,-0.0282,-0.0399,-0.0417,-0.0433,-0.0283,-0.0285,-0.0287,-0.0428,0,-0.0213,-0.0152,-0.0125,-0.0071,-0.0037,-0.0028,-0.0011,-0.0005,-0.0011,-0.0018,-0.0061,-0.0074,-0.0096,-0.0107,-0.0158,-0.023,-0.0289,-0.022,-0.0393,-0.0399,-0.0413,-0.0447,-0.0402,-0.0524,-0.044,-0.0442,-0.0444,0,-0.0191,-0.0149,-0.009,-0.0024,-0.0011,0.0015,0.0038,0.0054,0.0035,0.0025,-0.0008,-0.004,-0.01,-0.0121,-0.0265,-0.0221,-0.0308,-0.0371,-0.0378,-0.0424,-0.044,-0.0512,-0.055,-0.0543,-0.0463,-0.0461,-0.046,0,-0.0196,-0.0123,-0.0073,-0.005,0.0014,0.0033,0.0059,0.0062,0.0074,0.0045,0.0039,-0.0037,-0.0077,-0.0193,-0.0307,-0.0298,-0.0473,-0.0481,-0.0586,-0.0589,-0.0599,-0.0599,-0.065,-0.0602,-0.0602,-0.0601,-0.0601,0,-0.0178,-0.0136,-0.0069,-0.0039,0.0015,0.0049,0.0086,0.0095,0.0097,0.0106,0.0057,0.0035,-0.0099,-0.0202,-0.0316,-0.0487,-0.049,-0.0599,-0.0633,-0.0579,-0.0576,-0.061,-0.0682,-0.0606,-0.0605,-0.0604,-0.0603,0,-0.0179,-0.0138,-0.0072,-0.0003,0.002,0.0057,0.0118,0.0141,0.0137,0.014,0.0131,0.0067,-0.0065,-0.0203,-0.0395,-0.0499,-0.071,-0.0716,-0.0639,-0.0662,-0.0752,-0.0826,-0.1045,-0.1112,-0.0869,-0.0871,-0.0872,0,-0.0168,-0.0135,-0.0051,-0.0011,0.0025,0.0083,0.0122,0.0152,0.0173,0.016,0.0159,0.0053,-0.0008,-0.0283,-0.0485,-0.0704,-0.0775,-0.0812,-0.0789,-0.0764,-0.0871,-0.0927,-0.0972,-0.0786,-0.0787,-0.0787,-0.0787,0,-0.0146,-0.0121,-0.0066,0.0009,0.0064,0.0129,0.0184,0.0207,0.023,0.0234,0.0214,0.0169,-0.0072,-0.0238,-0.0515,-0.0685,-0.0854,-0.0828,-0.0825,-0.0842,-0.0888,-0.0963,-0.0681,-0.079,-0.079,-0.079,-0.0789,-0.0789,-0.0134,-0.0093,-0.0027,0.0043,0.0106,0.0174,0.0224,0.0274,0.0316,0.0352,0.0283,0.0284,0.0081,-0.0286,-0.0541,-0.0834,-0.0924,-0.0874,-0.0978,-0.1041,-0.1075,-0.08,-0.0927,-0.0927,-0.0928,-0.0928,-0.0928,0,-0.0119,-0.0064,0.0007,0.0094,0.0158,0.0189,0.0268,0.0321,0.0379,0.0441,0.0441,0.0436,0.017,-0.0133,-0.0538,-0.0834,-0.0997,-0.0989,-0.1019,-0.1069,-0.0816,-0.0769,-0.0838,-0.0838,-0.0838,-0.0838,-0.0838,-0.0838,-0.0102,-0.004,0.0002,0.0116,0.0181,0.0265,0.0313,0.0396,0.0469,0.0602,0.0694,0.0742,0.0732,-0.0003,-0.0546,-0.0808,-0.1047,-0.1173,-0.1286,-0.1021,-0.1014,-0.1008,-0.097,-0.108,-0.1081,-0.1441,-0.1445,-0.1448]}],[{"header":{"parameterUnit":"m.s-1","parameterCategory":2,"la1":30.2991,"la2":30.254,"lo1":-89.0895,"lo2":-89.0444,"dy":0.0017,"dx":0.0017,"nx":28,"ny":28,"refTime":"2025-11-12T09:00:00:Z","depth":"2","parameterNumber":2,"parameterNumberName":"U-component_of_CURRENTS"},"data":[0,0,0,0,0,0,0,0,0,0,0,0,0,0,0,0,0,0,0,0,0,0,0,0,0,0,0,0,0,0,0,0,0,0,0,0,0,0,0,0,0,0,0,0,0,0,0,0,0,0,0,0,0,0,0,0,0,0,0.1832,0.1833,0,0.1862,0.1862,0.1862,0.1859,0.1859,0.1859,0.1859,0.1887,0.1888,0.1889,0,0,0,0,0,0,0,0,0,0,0,0,0,0.1776,0.1777,0.1832,0.1833,0.1834,0.1862,0.1862,0.1862,0.1859,0.1859,0.1859,0.1859,0.1887,0.1888,0.1889,0,0,0,0,0,0,0,0,0,0,0,0,0,0.18,0.1777,0.1832,0.1838,0.1839,0.1862,0.1862,0.1862,0.1859,0.1859,0.1859,0.1859,0.1887,0.1888,0.1889,0.1902,0,0,0.1893,0.1894,0,0,0,0,0,0,0,0,0.1798,0.1801,0.1837,0.1838,0.1839,0.1859,0.1853,0.1877,0.1859,0.1848,0.1859,0.1859,0.188,0.1882,0.1884,0.1904,0.1905,0.1894,0.1894,0.1895,0.1895,0,0,0,0,0,0,0,0.1797,0.18,0.1841,0.1837,0.1839,0.184,0.1843,0.1857,0.1863,0.1849,0.185,0.1858,0.188,0.1882,0.1884,0.1905,0.1894,0.1895,0.1896,0.1896,0.1987,0.1989,0,0,0,0,0,0,0.18,0.1799,0.184,0.1842,0.1821,0.1842,0.1845,0.185,0.1863,0.1865,0.1859,0.1858,0.188,0.1883,0.1885,0.195,0.1895,0.1896,0.1897,0.1985,0.1987,0.1989,0,0,0,0,0,0,0.1798,0.1803,0.1839,0.1824,0.1829,0.1843,0.185,0.1851,0.1863,0.187,0.1872,0.1871,0.188,0.1883,0.1916,0.1949,0.1897,0.1898,0.1984,0.1986,0.1988,0.2049,0,0,0,0,0,0,0.1797,0.1802,0.1813,0.1824,0.183,0.1864,0.185,0.1852,0.187,0.187,0.1881,0.1883,0.188,0.1914,0.1918,0.195,0.1899,0.1982,0.1985,0.1988,0.2045,0.2053,0.206,0,0,0,0,0,0.1794,0.181,0.1813,0.1818,0.1842,0.1865,0.1868,0.1875,0.1871,0.1883,0.1895,0.1883,0.1936,0.1917,0.192,0.1954,0.198,0.1984,0.1987,0.2041,0.2051,0.206,0,0,0,0,0,0,0.1798,0.1811,0.1815,0.1836,0.1855,0.1866,0.1882,0.1884,0.1902,0.1903,0.1903,0.1906,0.1951,0.1944,0.1923,0.199,0.1957,0.1961,0.1996,0.2006,0.2013,0.2021,0.19,0,0,0,0,0,0.1803,0.1815,0.1832,0.1852,0.1861,0.1873,0.1885,0.189,0.1906,0.1913,0.1923,0.1938,0.1967,0.1978,0.1998,0.2031,0.2047,0.2055,0.2063,0.2069,0.2079,0.2147,0.2162,0.2001,0.2001,0.2001,0,0,0.1812,0.1822,0.183,0.1854,0.1867,0.1886,0.1879,0.1903,0.1923,0.1914,0.1948,0.1968,0.1984,0.2026,0.2045,0.2024,0.2123,0.2074,0.2079,0.2086,0.2153,0.2168,0.2182,0.2003,0.2003,0.2003,0,0,0.1832,0.1844,0.1858,0.1874,0.1899,0.1906,0.1916,0.1936,0.1948,0.1984,0.1991,0.2033,0.206,0.2086,0.2101,0.2162,0.2165,0.2168,0.2209,0.2275,0.2289,0.2301,0.2337,0.2352,0.2166,0.2166,0.2166,0,0.1845,0.1861,0.1869,0.1888,0.1908,0.1917,0.1941,0.1956,0.1986,0.2016,0.2002,0.2087,0.2091,0.2164,0.2182,0.218,0.221,0.2171,0.2286,0.2299,0.231,0.2344,0.236,0.217,0.2169,0.2169,0.2168,0,0.1871,0.1888,0.1901,0.1924,0.1947,0.197,0.1994,0.2023,0.204,0.2065,0.2143,0.2162,0.222,0.2226,0.2219,0.2311,0.2303,0.2293,0.2263,0.2331,0.2361,0.2377,0.2174,0.2173,0.2172,0.2171,0,0,0.1887,0.1912,0.1917,0.1931,0.1967,0.1987,0.2034,0.2086,0.2125,0.2168,0.2232,0.2288,0.2317,0.2335,0.2346,0.2388,0.2485,0.2376,0.2378,0.2411,0.2624,0.25,0.2504,0.2504,0.2508,0.251,0.261,0,0.1907,0.1936,0.195,0.1988,0.2008,0.204,0.2082,0.2134,0.2176,0.2237,0.2293,0.235,0.2354,0.2381,0.2442,0.2475,0.2531,0.2458,0.2554,0.2556,0.2438,0.252,0.2198,0.225,0.2625,0.2627,0.2629,0,0.1928,0.1943,0.1977,0.2019,0.2032,0.206,0.2137,0.2174,0.2266,0.2307,0.2397,0.2431,0.2524,0.2496,0.2632,0.2591,0.2624,0.2637,0.2642,0.2516,0.2461,0.2245,0.2264,0.2655,0.2653,0.2651,0.2649,0,0.1929,0.1966,0.1989,0.2003,0.2051,0.2086,0.2121,0.2205,0.2246,0.2352,0.2397,0.2521,0.2577,0.2659,0.2709,0.2684,0.2831,0.28,0.2723,0.2714,0.2451,0.2412,0.2903,0.2903,0.2902,0.2902,0.2902,0,0.1942,0.1963,0.1988,0.2,0.2042,0.2084,0.2142,0.2201,0.2284,0.2342,0.2434,0.2498,0.2623,0.2713,0.2752,0.2792,0.2887,0.2749,0.2743,0.246,0.2423,0.2778,0.2762,0.2906,0.2905,0.2904,0.2904,0,0.1945,0.1957,0.1983,0.2025,0.204,0.2073,0.2135,0.2173,0.226,0.2339,0.2373,0.2514,0.2632,0.2733,0.2855,0.2829,0.2875,0.2864,0.2507,0.2456,0.2699,0.2686,0.2788,0.2785,0.2782,0.278,0.2778,0,0.1952,0.196,0.199,0.1993,0.201,0.2053,0.2078,0.216,0.2195,0.2336,0.2366,0.251,0.2576,0.2707,0.2628,0.2658,0.2855,0.245,0.2335,0.271,0.2695,0.2685,0.2675,0.2014,0.2006,0.2,0.1994,0,0.1959,0.1962,0.197,0.1971,0.1987,0.2007,0.2046,0.2068,0.2164,0.2224,0.2318,0.2375,0.2416,0.2292,0.2313,0.2288,0.2411,0.2314,0.283,0.2084,0.1986,0.1969,0.1984,0.1936,0.1942,0.1946,0.1949,0.1951,0.1956,0.1951,0.194,0.1935,0.1944,0.1937,0.1928,0.1961,0.1995,0.2004,0.2147,0.2111,0.2032,0.185,0.1852,0.1854,0.1981,0.1951,0.197,0.1995,0.1879,0.178,0.1669,0.1673,0.1677,0.168,0.1683,0,0.1923,0.1907,0.19,0.1865,0.1827,0.1872,0.1877,0.182,0.1803,0.1795,0.1807,0.1527,0.1413,0.1484,0.13,0.1282,0.1246,0.1362,0.1303,0.1354,0.1402,0.1258,0.0883,0.0883,0.0883,0.0882,0,0,0.1899,0.1855,0.1832,0.1739,0.1724,0.1661,0.165,0.1567,0.1516,0.1369,0.1278,0.1216,0.128,0.1,0.0962,0.0952,0.1168,0.0913,0.1514,0.1484,0.1534,0.1659,0.1483,0,0,0,0,0]},{"header":{"parameterUnit":"m.s-1","parameterCategory":2,"la1":30.2991,"la2":30.254,"lo1":-89.0895,"lo2":-89.0444,"dy":0.0017,"dx":0.0017,"nx":28,"ny":28,"refTime":"2025-11-12T09:00:00:Z","depth":"2","parameterNumber":3,"parameterNumberName":"V-component_of_CURRENTS"},"data":[0,0,0,0,0,0,0,0,0,0,0,0,0,0,0,0,0,0,0,0,0,0,0,0,0,0,0,0,0,0,0,0,0,0,0,0,0,0,0,0,0,0,0,0,0,0,0,0,0,0,0,0,0,0,0,0,0,0,0.0007,0.0007,0,-0.0053,-0.0054,-0.0054,-0.0102,-0.0102,-0.0102,-0.0103,-0.0206,-0.0209,-0.0211,0,0,0,0,0,0,0,0,0,0,0,0,0,0.0065,0.0064,0.0007,0.0007,0.0006,-0.0053,-0.0054,-0.0054,-0.0101,-0.0102,-0.0102,-0.0103,-0.0206,-0.0208,-0.0211,0,0,0,0,0,0,0,0,0,0,0,0,0,0.0025,0.0064,0.0007,-0.0024,-0.0028,-0.0053,-0.0054,-0.0055,-0.0101,-0.0102,-0.0103,-0.0103,-0.0205,-0.0208,-0.0212,-0.0221,0,0,-0.0223,-0.0224,0,0,0,0,0,0,0,0,0.0028,0.0023,-0.0019,-0.0022,-0.0026,-0.007,-0.0071,-0.0112,-0.0101,-0.0074,-0.0103,-0.0104,-0.0164,-0.0171,-0.0181,-0.0225,-0.023,-0.0223,-0.0225,-0.0226,-0.0227,0,0,0,0,0,0,0,0.003,0.0025,-0.0017,-0.002,-0.0024,-0.0041,-0.0048,-0.0079,-0.0116,-0.0076,-0.008,-0.0086,-0.0167,-0.0177,-0.0184,-0.0231,-0.0223,-0.0226,-0.0228,-0.0229,-0.03,-0.0299,0,0,0,0,0,0,0.004,0.0028,-0.0015,-0.0019,0.0,-0.0042,-0.0049,-0.0056,-0.0115,-0.0124,-0.0085,-0.0088,-0.0171,-0.018,-0.0188,-0.0185,-0.0226,-0.023,-0.0232,-0.03,-0.03,-0.0299,0,0,0,0,0,0,0.0042,0.0037,-0.0013,0.0004,-0.0004,-0.0042,-0.0049,-0.0056,-0.0067,-0.0121,-0.0131,-0.0088,-0.0172,-0.0183,-0.021,-0.0191,-0.0231,-0.0235,-0.03,-0.03,-0.0299,-0.0192,0,0,0,0,0,0,0.0043,0.0038,0.0039,0.0004,-0.0004,-0.0015,-0.0049,-0.0057,-0.0069,-0.0073,-0.0126,-0.0137,-0.0173,-0.0205,-0.0214,-0.0196,-0.0237,-0.0301,-0.03,-0.03,-0.0196,-0.0188,-0.0181,0,0,0,0,0,0.0046,0.0055,0.004,0.0034,-0.0002,-0.0014,-0.002,-0.005,-0.0068,-0.0063,-0.0103,-0.0135,-0.0208,-0.0207,-0.0218,-0.0201,-0.0301,-0.03,-0.03,-0.0199,-0.0189,-0.0181,0,0,0,0,0,0,0.0082,0.005,0.0032,0.0031,0.0014,-0.0022,-0.0022,-0.0043,-0.007,-0.0077,-0.013,-0.0143,-0.016,-0.0199,-0.0196,-0.0223,-0.0261,-0.0262,-0.018,-0.0172,-0.0165,-0.0135,-0.024,0,0,0,0,0,0.009,0.0087,0.0056,0.0056,0.0049,0.0014,0.0005,-0.0014,-0.0043,-0.0056,-0.0092,-0.0134,-0.0166,-0.0183,-0.0218,-0.023,-0.0263,-0.0229,-0.0222,-0.0215,-0.02,-0.0237,-0.0231,-0.0297,-0.0297,-0.0297,0,0,0.0104,0.0086,0.0084,0.0063,0.0045,0.0049,0.0008,0.0001,0.0006,-0.0063,-0.0068,-0.0109,-0.0165,-0.0176,-0.0188,-0.0206,-0.0213,-0.0214,-0.0208,-0.0196,-0.0236,-0.0229,-0.0223,-0.0297,-0.0297,-0.0297,0,0,0.0136,0.0114,0.0125,0.0116,0.0096,0.0078,0.008,0.005,0.0038,0.0027,-0.0021,-0.0046,-0.0097,-0.0123,-0.0147,-0.0122,-0.0173,-0.014,-0.0075,-0.0112,-0.0106,-0.0101,-0.0124,-0.0123,-0.0135,-0.0135,-0.0135,0,0.0155,0.016,0.0129,0.014,0.014,0.0096,0.0115,0.01,0.0067,0.0067,0.0038,-0.0021,-0.0068,-0.0076,-0.0069,-0.0102,-0.013,-0.0099,-0.0099,-0.0096,-0.0093,-0.0118,-0.0117,-0.013,-0.013,-0.0131,-0.0131,0,0.0195,0.0201,0.0209,0.0208,0.0207,0.0215,0.0192,0.0191,0.0167,0.0152,0.0138,0.0077,0.0045,0.0024,-0.0015,-0.0013,-0.0042,-0.0084,-0.0113,-0.0079,-0.0108,-0.0109,-0.0122,-0.0124,-0.0125,-0.0127,0,0,0.0229,0.0237,0.0238,0.0257,0.0243,0.0252,0.0262,0.0266,0.0288,0.0247,0.0268,0.0209,0.0179,0.015,0.0097,0.0067,0.0062,0.001,0.0005,0.0003,-0.0007,-0.0026,-0.003,0.0019,0.0019,0.0019,-0.0031,0,0.0269,0.0307,0.03,0.0346,0.0365,0.0343,0.0362,0.036,0.0351,0.0362,0.0303,0.0295,0.0225,0.0213,0.0176,0.0093,0.0062,0.0081,-0.0054,-0.0057,-0.0066,-0.0031,-0.0045,-0.0092,-0.0033,-0.0033,-0.0034,0,0.031,0.033,0.0376,0.0419,0.0427,0.045,0.0482,0.0499,0.0497,0.049,0.0472,0.0422,0.0384,0.031,0.02,0.0215,0.0117,0.0045,0.0041,-0.0013,-0.0078,-0.0122,-0.0097,-0.0037,-0.0037,-0.0036,-0.0036,0,0.0344,0.0389,0.043,0.044,0.0474,0.0501,0.0524,0.0538,0.0568,0.0575,0.0596,0.0533,0.0509,0.0386,0.0242,0.0217,0.0117,0.0056,-0.0051,-0.0053,-0.011,-0.0117,-0.0028,-0.0028,-0.0028,-0.0028,-0.0028,0,0.0386,0.0422,0.0452,0.0475,0.0541,0.0552,0.0623,0.0638,0.0672,0.0729,0.0668,0.0691,0.0525,0.0444,0.029,0.0135,0.015,-0.0023,-0.0063,-0.0073,-0.0076,-0.007,-0.0074,-0.003,-0.0029,-0.0029,-0.0029,0,0.0415,0.0429,0.0484,0.0533,0.0556,0.0604,0.0683,0.0737,0.0765,0.0837,0.0842,0.081,0.0715,0.0545,0.0358,0.021,0.005,-0.0018,-0.0005,-0.0043,-0.011,-0.0109,-0.0139,-0.014,-0.0141,-0.0142,-0.0142,0,0.0433,0.0459,0.0523,0.0561,0.0587,0.066,0.0714,0.0769,0.0835,0.0913,0.0954,0.09,0.0874,0.0616,0.0343,0.0089,0.0059,-0.0093,-0.0151,-0.0083,-0.012,-0.0117,-0.0114,-0.0184,-0.0185,-0.0186,-0.0187,0,0.0468,0.0483,0.0526,0.06,0.0664,0.0752,0.084,0.0909,0.099,0.1064,0.1152,0.1142,0.0901,0.0628,0.0282,0.0116,-0.0052,-0.0116,-0.0049,-0.0148,-0.0128,-0.0164,-0.0159,-0.0193,-0.0192,-0.0192,-0.0191,-0.0191,0.0488,0.0523,0.0573,0.0649,0.0725,0.0842,0.0935,0.1045,0.1174,0.1272,0.1261,0.1192,0.083,0.0349,0.0125,-0.0091,-0.0093,-0.0224,-0.0221,-0.0217,-0.0208,-0.019,-0.0263,-0.0263,-0.0263,-0.0263,-0.0263,0,0.0513,0.0554,0.0624,0.0721,0.0814,0.085,0.1017,0.1128,0.1303,0.1285,0.1334,0.0932,0.0628,0.0307,-0.0038,-0.0258,-0.0254,-0.0302,-0.0284,-0.0278,-0.0272,-0.0264,-0.0336,-0.0336,-0.0337,-0.0337,0,0,0.0529,0.0589,0.0627,0.0776,0.085,0.1006,0.1113,0.1285,0.1323,0.1305,0.1168,0.095,0.0554,0.0228,-0.0036,-0.0163,-0.0153,-0.0173,-0.0101,-0.0042,-0.0033,-0.0223,-0.0203,0,0,0,0,0]}],[{"header":{"parameterUnit":"m.s-1","parameterCategory":2,"la1":30.2991,"la2":30.254,"lo1":-89.0895,"lo2":-89.0444,"dy":0.0017,"dx":0.0017,"nx":28,"ny":28,"refTime":"2025-11-12T09:00:00:Z","depth":"4","parameterNumber":2,"parameterNumberName":"U-component_of_CURRENTS"},"data":[0,0,0,0,0,0,0,0,0,0,0,0,0,0,0,0,0,0,0,0,0,0,0,0,0,0,0,0,0,0,0,0,0,0,0,0,0,0,0,0,0,0,0,0,0,0,0,0,0,0,0,0,0,0,0,0,0,0,0.043,0.0431,0,0.0513,0.0514,0.0515,0.0591,0.0592,0.0594,0.0595,0.0619,0.0618,0.0618,0,0,0,0,0,0,0,0,0,0,0,0,0,0.0333,0.0334,0.043,0.0431,0.0432,0.0513,0.0514,0.0515,0.0591,0.0592,0.0594,0.0595,0.0619,0.0618,0.0618,0,0,0,0,0,0,0,0,0,0,0,0,0,0.0388,0.0334,0.0429,0.0483,0.0489,0.0513,0.0514,0.0515,0.0591,0.0593,0.0594,0.0596,0.0619,0.0618,0.0617,0.0574,0,0,0.0615,0.0615,0,0,0,0,0,0,0,0,0.0385,0.0391,0.0474,0.0479,0.0486,0.0547,0.0489,0.0533,0.059,0.0548,0.0595,0.0597,0.059,0.0592,0.0599,0.0576,0.0577,0.0615,0.0614,0.0614,0.0614,0,0,0,0,0,0,0,0.0381,0.0388,0.0459,0.0475,0.0483,0.0502,0.0511,0.0498,0.0553,0.0552,0.0559,0.0573,0.0593,0.06,0.06,0.0577,0.0615,0.0614,0.0614,0.0613,0.0598,0.0599,0,0,0,0,0,0,0.0376,0.0384,0.0457,0.0462,0.0443,0.0502,0.0513,0.0522,0.0555,0.0564,0.0571,0.0576,0.06,0.0601,0.0601,0.0629,0.0614,0.0613,0.0613,0.0598,0.0598,0.0599,0,0,0,0,0,0,0.0373,0.0381,0.0453,0.0428,0.0439,0.0502,0.0512,0.0523,0.0581,0.0571,0.0578,0.0624,0.0602,0.0602,0.0622,0.0627,0.0613,0.0612,0.0598,0.0598,0.0599,0.0635,0,0,0,0,0,0,0.037,0.0379,0.0401,0.0428,0.0441,0.0498,0.0511,0.0524,0.0585,0.0594,0.0617,0.0619,0.0603,0.0623,0.0621,0.0626,0.0612,0.0598,0.0598,0.0598,0.0633,0.0636,0.0638,0,0,0,0,0,0.0366,0.0391,0.0401,0.0411,0.0462,0.0499,0.0508,0.0556,0.0587,0.0615,0.0628,0.0621,0.0623,0.0623,0.0621,0.0625,0.0598,0.0598,0.0598,0.0632,0.0635,0.0638,0,0,0,0,0,0,0.0366,0.0402,0.0414,0.045,0.0484,0.0515,0.0556,0.0581,0.0615,0.0634,0.0626,0.0627,0.064,0.063,0.0631,0.062,0.0607,0.0607,0.0634,0.0636,0.0639,0.0652,0.0611,0,0,0,0,0,0.0371,0.04,0.0431,0.0464,0.0487,0.0527,0.0557,0.0586,0.0612,0.0634,0.0646,0.0647,0.0628,0.0636,0.062,0.0623,0.0609,0.0622,0.0625,0.0627,0.0635,0.061,0.0611,0.0599,0.0599,0.0599,0,0,0.0383,0.0406,0.0426,0.0467,0.0502,0.0528,0.0552,0.0609,0.0628,0.0625,0.0668,0.0658,0.063,0.0626,0.0631,0.0629,0.0625,0.0627,0.0629,0.0637,0.0611,0.0612,0.0613,0.0599,0.0599,0.0599,0,0,0.0405,0.0442,0.0469,0.0498,0.0552,0.0567,0.0594,0.0641,0.0669,0.0695,0.0684,0.0687,0.0684,0.0656,0.0639,0.0647,0.0634,0.0647,0.0677,0.0653,0.0654,0.0654,0.0647,0.0647,0.0654,0.0654,0.0654,0,0.0424,0.0449,0.0485,0.0514,0.0543,0.0588,0.0617,0.064,0.0686,0.0695,0.0718,0.0701,0.0689,0.0656,0.0665,0.0652,0.0648,0.0669,0.0657,0.0657,0.0657,0.0649,0.0648,0.0656,0.0656,0.0655,0.0655,0,0.0441,0.0482,0.0509,0.0548,0.0579,0.0623,0.0649,0.0685,0.0722,0.0731,0.074,0.0724,0.0719,0.0705,0.0693,0.068,0.068,0.0658,0.0651,0.0661,0.0651,0.065,0.0658,0.0658,0.0657,0.0657,0,0,0.0444,0.0507,0.0524,0.0548,0.0606,0.0631,0.0663,0.069,0.0713,0.0744,0.0758,0.0735,0.0751,0.0733,0.0714,0.0698,0.07,0.0696,0.0694,0.0694,0.0668,0.0637,0.0633,0.0683,0.0683,0.0682,0.0664,0,0.0457,0.0507,0.0532,0.0587,0.0619,0.0658,0.0677,0.0705,0.0733,0.0756,0.0744,0.0754,0.0752,0.0763,0.0747,0.0705,0.0697,0.0708,0.0655,0.0654,0.0629,0.063,0.0681,0.0663,0.0663,0.0662,0.0662,0,0.0462,0.0498,0.055,0.0605,0.0624,0.0659,0.0704,0.0727,0.0751,0.0773,0.0787,0.079,0.0781,0.078,0.0733,0.0747,0.0725,0.0692,0.0689,0.0648,0.062,0.0649,0.0659,0.0659,0.066,0.066,0.066,0,0.0438,0.0512,0.0554,0.0578,0.064,0.0674,0.071,0.0743,0.0762,0.0801,0.082,0.081,0.0819,0.0782,0.0738,0.0749,0.0674,0.067,0.0618,0.0616,0.0634,0.0633,0.0639,0.0639,0.064,0.064,0.064,0,0.0427,0.0473,0.0559,0.0585,0.0636,0.0683,0.073,0.0762,0.08,0.0807,0.0845,0.0812,0.0825,0.0783,0.0741,0.0672,0.0678,0.0627,0.0606,0.065,0.0652,0.0633,0.0633,0.0639,0.0639,0.0639,0.0639,0,0.0394,0.0453,0.051,0.0596,0.0631,0.0673,0.0753,0.0767,0.0824,0.0836,0.0856,0.0836,0.0776,0.0761,0.0688,0.0677,0.0604,0.0575,0.0634,0.0615,0.0572,0.0574,0.054,0.0539,0.0538,0.0537,0.0536,0,0.0375,0.0405,0.0515,0.0554,0.0606,0.0678,0.0711,0.0778,0.0784,0.0802,0.0779,0.0761,0.0738,0.061,0.0588,0.0541,0.0527,0.0541,0.0563,0.0577,0.056,0.0564,0.0567,0.0534,0.0534,0.0534,0.0533,0,0.0335,0.0391,0.0433,0.052,0.0581,0.0623,0.068,0.0671,0.0722,0.0788,0.0708,0.0683,0.061,0.0545,0.0539,0.048,0.0564,0.053,0.0533,0.0553,0.057,0.0555,0.0559,0.053,0.053,0.053,0.0531,0,0.0312,0.0328,0.0398,0.0471,0.0544,0.0555,0.0578,0.0583,0.0602,0.0651,0.0588,0.0551,0.0562,0.0504,0.0445,0.0448,0.0454,0.0489,0.0494,0.0498,0.0494,0.051,0.0433,0,0,0,0,0,0.0285,0.0299,0.0342,0.0412,0.0483,0.0526,0.0552,0.0561,0.0605,0.0553,0.0593,0.0516,0.0475,0.041,0.0402,0.0408,0.0443,0.0402,0.0483,0.0508,0.0513,0.0512,0,0,0,0,0,0,0.0262,0.0301,0.0315,0.0365,0.0406,0.0454,0.0463,0.0474,0.044,0.0492,0.0432,0.054,0.0449,0.0484,0.0407,0.0408,0.0464,0.041,0.0411,0.0506,0.051,0.0513,0.0514,0,0,0,0,0]},{"header":{"parameterUnit":"m.s-1","parameterCategory":2,"la1":30.2991,"la2":30.254,"lo1":-89.0895,"lo2":-89.0444,"dy":0.0017,"dx":0.0017,"nx":28,"ny":28,"refTime":"2025-11-12T09:00:00:Z","depth":"4","parameterNumber":3,"parameterNumberName":"V-component_of_CURRENTS"},"data":[0,0,0,0,0,0,0,0,0,0,0,0,0,0,0,0,0,0,0,0,0,0,0,0,0,0,0,0,0,0,0,0,0,0,0,0,0,0,0,0,0,0,0,0,0,0,0,0,0,0,0,0,0,0,0,0,0,0,0.026,0.026,0,0.0224,0.0224,0.0223,0.0189,0.0189,0.0189,0.019,0.0114,0.0112,0.011,0,0,0,0,0,0,0,0,0,0,0,0,0,0.0244,0.0245,0.026,0.026,0.026,0.0225,0.0224,0.0223,0.0189,0.0189,0.0189,0.019,0.0114,0.0112,0.0109,0,0,0,0,0,0,0,0,0,0,0,0,0,0.023,0.0245,0.026,0.0243,0.0241,0.0225,0.0223,0.0222,0.0189,0.0189,0.019,0.019,0.0115,0.0112,0.0109,0.0089,0,0,0.01,0.0098,0,0,0,0,0,0,0,0,0.0231,0.023,0.0245,0.0244,0.0243,0.0216,0.019,0.0177,0.0189,0.0204,0.019,0.019,0.0147,0.0142,0.0128,0.0085,0.0082,0.0099,0.0097,0.0096,0.0095,0,0,0,0,0,0,0,0.0232,0.0231,0.0241,0.0246,0.0244,0.0219,0.0216,0.0187,0.0171,0.0203,0.0201,0.0205,0.0145,0.0131,0.0126,0.0081,0.0099,0.0097,0.0095,0.0093,-0.0024,-0.0026,0,0,0,0,0,0,0.0249,0.0232,0.0242,0.024,0.0242,0.0219,0.0217,0.022,0.0172,0.0167,0.0205,0.0204,0.0136,0.013,0.0123,0.0063,0.0096,0.0093,0.0091,-0.0023,-0.0025,-0.0026,0,0,0,0,0,0,0.0249,0.025,0.0244,0.0239,0.0237,0.0221,0.0224,0.022,0.0198,0.0176,0.0168,0.0189,0.0136,0.0128,0.0086,0.0061,0.0092,0.0089,-0.0022,-0.0024,-0.0025,-0.0037,0,0,0,0,0,0,0.0249,0.025,0.0255,0.0241,0.0238,0.0226,0.0224,0.0219,0.0204,0.0201,0.0159,0.0153,0.0136,0.0091,0.0083,0.0057,0.0087,-0.002,-0.0022,-0.0025,-0.0035,-0.0039,-0.0042,0,0,0,0,0,0.0248,0.0258,0.0255,0.0257,0.0247,0.0227,0.0222,0.0207,0.0203,0.0188,0.016,0.0154,0.007,0.0087,0.0078,0.0051,-0.0019,-0.0022,-0.0025,-0.0033,-0.0038,-0.0042,0,0,0,0,0,0,0.0251,0.0255,0.0252,0.0262,0.0243,0.0223,0.0217,0.0203,0.0168,0.0164,0.0139,0.0129,0.0081,0.0068,0.0088,0.0009,0.0024,0.0019,0.002,0.0015,0.0011,0.0018,0.0084,0,0,0,0,0,0.0256,0.0264,0.0254,0.0258,0.0253,0.0232,0.0222,0.0206,0.018,0.0165,0.0133,0.0098,0.0063,0.0042,0.0008,-0.0032,-0.0035,-0.0056,-0.006,-0.0063,-0.0065,-0.0092,-0.0098,-0.0035,-0.0035,-0.0035,0,0,0.026,0.0263,0.0268,0.0259,0.0247,0.0228,0.0224,0.0206,0.018,0.0162,0.0113,0.0082,0.0049,0.0001,-0.0022,-0.0013,-0.0082,-0.0067,-0.0069,-0.0069,-0.0095,-0.0101,-0.0107,-0.0037,-0.0037,-0.0037,0,0,0.0263,0.0272,0.0273,0.0258,0.0241,0.0225,0.0219,0.0186,0.0162,0.0115,0.0094,0.0051,-0.0005,-0.0035,-0.0055,-0.01,-0.0101,-0.0115,-0.0129,-0.0155,-0.016,-0.0165,-0.0168,-0.0173,-0.0116,-0.0116,-0.0116,0,0.0267,0.0266,0.0266,0.0254,0.0243,0.0223,0.0204,0.0177,0.0128,0.0105,0.0097,0.0006,-0.0023,-0.0076,-0.0095,-0.0108,-0.0115,-0.0106,-0.0159,-0.0163,-0.0168,-0.017,-0.0175,-0.0117,-0.0117,-0.0116,-0.0116,0,0.0257,0.0256,0.0255,0.0236,0.0219,0.0201,0.0171,0.0139,0.011,0.0078,0.0014,-0.0029,-0.0079,-0.0101,-0.0114,-0.0165,-0.0156,-0.0159,-0.0142,-0.0174,-0.0175,-0.018,-0.0118,-0.0118,-0.0117,-0.0117,0,0,0.0268,0.0253,0.0252,0.024,0.0207,0.0192,0.0153,0.011,0.0083,0.0025,-0.0018,-0.0087,-0.0108,-0.0132,-0.0157,-0.0186,-0.0221,-0.0187,-0.0188,-0.018,-0.0265,-0.0249,-0.0252,-0.0233,-0.0234,-0.0235,-0.025,0,0.0257,0.0243,0.0231,0.0204,0.0192,0.0162,0.0129,0.0086,0.0046,-0.0002,-0.0052,-0.0099,-0.0119,-0.0142,-0.0179,-0.0214,-0.0237,-0.0216,-0.0244,-0.0245,-0.0218,-0.0259,-0.0239,-0.0253,-0.0255,-0.0255,-0.0256,0,0.0246,0.0241,0.0223,0.0192,0.0183,0.0161,0.0113,0.0078,0.0016,-0.0016,-0.0069,-0.0105,-0.0164,-0.0169,-0.0241,-0.0227,-0.0248,-0.027,-0.0271,-0.0255,-0.0238,-0.0219,-0.0265,-0.0264,-0.0263,-0.0263,-0.0262,0,0.0254,0.023,0.0221,0.021,0.0173,0.0155,0.013,0.0075,0.0051,-0.0015,-0.0038,-0.0115,-0.0146,-0.0198,-0.0244,-0.0246,-0.0309,-0.0314,-0.0315,-0.0312,-0.0314,-0.0309,-0.0357,-0.0357,-0.0357,-0.0357,-0.0357,0,0.0244,0.0236,0.0229,0.0223,0.0204,0.0171,0.0143,0.0104,0.0059,0.0032,-0.0035,-0.0075,-0.0156,-0.0202,-0.0245,-0.0293,-0.0307,-0.0324,-0.0324,-0.0318,-0.0314,-0.0317,-0.0312,-0.0358,-0.0358,-0.0358,-0.0358,0,0.0245,0.0243,0.0236,0.0215,0.0211,0.0198,0.0171,0.0148,0.0106,0.0072,0.0056,-0.004,-0.011,-0.0171,-0.0252,-0.0282,-0.0332,-0.0338,-0.0311,-0.0307,-0.0316,-0.0312,-0.0354,-0.0354,-0.0354,-0.0354,-0.0354,0,0.0238,0.0241,0.0245,0.0247,0.024,0.0227,0.0215,0.0177,0.016,0.009,0.0073,-0.0004,-0.0067,-0.0171,-0.0242,-0.0311,-0.0318,-0.0334,-0.035,-0.0325,-0.0321,-0.0316,-0.0313,-0.0353,-0.0353,-0.0353,-0.0353,0,0.0224,0.0239,0.0236,0.026,0.0259,0.0249,0.0236,0.0225,0.0179,0.0163,0.008,0.0003,-0.0075,-0.0175,-0.0216,-0.0272,-0.0328,-0.0332,-0.0333,-0.0349,-0.0324,-0.0319,-0.0315,-0.0352,-0.0352,-0.0352,-0.0352,0,0.0219,0.0217,0.0235,0.0251,0.0269,0.0256,0.024,0.0211,0.0189,0.0129,0.0103,-0.0001,-0.0055,-0.0153,-0.0202,-0.0246,-0.0267,-0.0283,-0.0287,-0.0289,-0.0269,-0.0228,-0.0235,0,0,0,0,0,0.0207,0.0207,0.022,0.0231,0.0261,0.027,0.0249,0.0229,0.0206,0.016,0.0133,0.0059,-0.0055,-0.0127,-0.0168,-0.0201,-0.0271,-0.0251,-0.029,-0.0348,-0.0349,-0.0337,0,0,0,0,0,0,0.0189,0.0205,0.0211,0.0233,0.0249,0.0258,0.0244,0.0215,0.0183,0.0157,0.0091,0.0072,-0.0042,-0.0011,-0.0157,-0.0175,-0.0204,-0.0298,-0.0298,-0.0348,-0.0348,-0.0349,-0.0337,0,0,0,0,0]}]]